Skip Page Navigation
NASA JPL Caltech
NASA Logo - Jet Propulsion Laboratory + View the NASA Portal
+ Center for Near-Earth Object Studies
JPL Home Earth Solar System Stars & Galaxies Technology
JPL Solar System Dynamics
BODIES ORBITS EPHEMERIDES TOOLS PHYSICAL DATA DISCOVERY FAQ SITE MAP
IMPORTANT: The SSD Announcement email list is now available. Major changes are coming in the near future, including possible hostname and/or URL changes. To be notified of such changes, subscribe to this email list.

Please visit this page for more details.


JPL Small-Body Database Browser
Search: [ help ]  
523713 (2014 JX80)
Classification: TransNeptunian Object          SPK-ID: 2523713
Ephemeris | Orbit Diagram | Orbital Elements | Physical Parameters | Discovery Circumstances ]

[ show orbit diagram ]
Orbital Elements at Epoch 2458600.5 (2019-Apr-27.0) TDB
Reference: JPL 9 (heliocentric ecliptic J2000)
 Element Value Uncertainty (1-sigma)   Units 
e .3636827327840509 2.7143e-05  
a 56.26177270447141 0.0027653 au
q 35.80033745603413 0.00023932 au
i 28.85032412946813 3.9713e-05 deg
node 196.3187529560083 0.00012129 deg
peri 49.99359500668889 0.0030388 deg
M 5.703672180601661 0.0014785 deg
tp 2456158.359756550491
(2012-Aug-18.85975655)
0.56271 TDB
period 154141.1322046006
422.02
11.364
0.03111
d
yr
n .002335521965169886 1.7219e-07 deg/d
Q 76.72320795290869 0.0037711 au
  Orbit Determination Parameters
   # obs. used (total)      150  
   data-arc span      3290 days (9.01 yr)  
   first obs. used      2010-05-09  
   last obs. used      2019-05-12  
   planetary ephem.      DE431  
   SB-pert. ephem.      SB431-N16  
   condition code      2  
   norm. resid. RMS      .44346  
   source      ORB  
   producer      Otto Matic  
   solution date      2019-May-30 10:38:58  

Additional Information
 Earth MOID = 34.8605 au 
 Jupiter MOID = 30.7961 au 
 T_jup = 5.458 
[ show covariance matrix ]

Ephemeris | Orbit Diagram | Orbital Elements | Physical Parameters | Discovery Circumstances ]

Physical Parameter Table
Parameter Symbol Value Units Sigma Reference Notes
absolute magnitude H 6.2   n/a MPO450799  

523713 (2014 JX80)          Discovered 2010-May-09 by Pan-STARRS 1 at Haleakala
Reference: Last Updated: 2018-10-01
Ephemeris | Orbit Diagram | Orbital Elements | Physical Parameters | Discovery Circumstances ]
ABOUT SSD CREDITS/AWARDS PRIVACY/COPYRIGHT GLOSSARY LINKS
FirstGov
(server date/time)  
NASA Home Page
Site Manager:   Ryan S. Park
Webmaster  Alan B. Chamberlin